"Pseudo-MPEC" for X60263

Created 2018 Oct 22 17:18:07 UT using Find_Orb

Click here for an explanation of pseudo-MPECs

 
 Astrometry: 
     X60263   C2018 09 28w0AstrometryXilMl3N%^Oc$:Vc-Jmc\c39fwWZ[1ktT]!J*bYCgD29
     X60263   C2018 09 28MP[$xx`a2SNcdbDZMredacted;i.'c(Qm.m'+ZT+eicch#$TVRqtD29
     X60263   C2018 09 28n;TA^bIdL+o?mcxwU^xG%f%^t[jk0_`dZDM]cSh2L5uM4M\riZsID29
     X60263  KC2018 09 29!x-O4QAD6'.q5.iBwUo2+vXXr!lF$GDeseewX=rVSSe$YT3wdXFP118
     X60263  KC2018 09 29cBQuT#v#!HHfyZ)q77$Vo8d\:;FLaQi)(]_o8cJ:ej9ytdjNEOCP118

Station data:
(118) Modra  (N48.373144
   E17.274000)  Slovakia.  Observers S. Gajdos, A. Galád. 0.6-m f/5.5
   reflector + CCD.
(D29) Purple Mountain Observatory, XuYi Station  (N32.734366 E118.463900)
   China.  Observers H. B. Zhao, B. Li, G. Zhaori, R. Q. Hong, L. F. Hu.
   Measurers H. B. Zhao, B. Li. H. Lu, G. Zhaori. 1.04-m f/1.8 Schmidt + CCD.

Orbital elements:  X60263
   Perihelion 2018 Sep 14.680114 +/- 208 TT = 16:19:21 (JD 2458376.180114)
Epoch 2018 Sep 29.0 TT = JDT 2458390.5   Earth MOID: 0.0448   AutoNEOCP
M  11.47240 +/- 160                 (J2000 ecliptic)
n   0.80115220 +/- 0.0677           Peri.   38.10176 +/- 500
a   1.14813430 +/- 0.0647           Node   313.71230 +/- 300
e   0.0862626 +/- 0.114             Incl.    2.16712 +/- 1.7
P   1.23/449.34d           H 24.7   G  0.15   U 11.0  
q 1.04909319 +/- 0.0786    Q 1.24717541 +/- 0.201
From 5 observations 2018 Sept. 28-29 (26.1 hr); mean residual 0".97
Residuals in arcseconds: 
180928 D29  .70+  .61-    180928 D29  .78-  .13+    180929 118  .82+  1.8-    
180928 D29  .07+  .47+    180929 118  .82-  1.8+    

Ephemerides (geocentric):
Date (UTC) HH   RA              Dec         delta   r     elong  mag " sig PA
---- -- -- --  -------------   -----------  ------ ------ -----  --- ---- ---
2018 10 22 17  23 51 46.159   +29 57 03.62  .08232 1.0652 147.1 20.8 9586  91
2018 10 22 18  23 51 50.656   +29 56 37.72  .08238 1.0652 147.1 20.8 9610  91
2018 10 22 19  23 51 55.156   +29 56 11.78  .08243 1.0652 147.1 20.8 9633  91
2018 10 22 20  23 51 59.657   +29 55 45.81  .08249 1.0653 147.1 20.8 9656  91
2018 10 22 21  23 52 04.160   +29 55 19.81  .08254 1.0653 147.1 20.8 9679  91
2018 10 22 22  23 52 08.666   +29 54 53.77  .08260 1.0654 147.1 20.8 9703  91
2018 10 22 23  23 52 13.173   +29 54 27.70  .08265 1.0654 147.1 20.8 9726  91
2018 10 23 00  23 52 17.682   +29 54 01.59  .08271 1.0654 147.1 20.8 9749  91
2018 10 23 01  23 52 22.194   +29 53 35.46  .08277 1.0655 147.1 20.8 9773  91
2018 10 23 02  23 52 26.707   +29 53 09.29  .08282 1.0655 147.1 20.8 9796  91
2018 10 23 03  23 52 31.222   +29 52 43.09  .08288 1.0655 147.1 20.8 9819  91
2018 10 23 04  23 52 35.739   +29 52 16.85  .08293 1.0656 147.1 20.8 9842  91
2018 10 23 05  23 52 40.258   +29 51 50.58  .08299 1.0656 147.1 20.8 9866  91
2018 10 23 06  23 52 44.779   +29 51 24.28  .08305 1.0656 147.1 20.8 9889  91
2018 10 23 07  23 52 49.303   +29 50 57.95  .08310 1.0657 147.1 20.8 9912  91
2018 10 23 08  23 52 53.828   +29 50 31.59  .08316 1.0657 147.1 20.8 9936  91
2018 10 23 09  23 52 58.354   +29 50 05.19  .08321 1.0657 147.1 20.8 9959  92
2018 10 23 10  23 53 02.883   +29 49 38.77  .08327 1.0658 147.1 20.8 9982  92
2018 10 23 11  23 53 07.414   +29 49 12.31  .08333 1.0658 147.1 20.8 167'  92
2018 10 23 12  23 53 11.947   +29 48 45.81  .08338 1.0658 147.1 20.8 167'  92
2018 10 23 13  23 53 16.481   +29 48 19.29  .08344 1.0659 147.1 20.8 168'  92
2018 10 23 14  23 53 21.018   +29 47 52.74  .08349 1.0659 147.1 20.8 168'  92
2018 10 23 15  23 53 25.556   +29 47 26.15  .08355 1.0659 147.1 20.8 168'  92
2018 10 23 16  23 53 30.097   +29 46 59.54  .08361 1.0660 147.0 20.8 169'  92
2018 10 23 17  23 53 34.639   +29 46 32.89  .08366 1.0660 147.0 20.8 169'  92
2018 10 23 18  23 53 39.183   +29 46 06.21  .08372 1.0660 147.0 20.8 169'  92
2018 10 23 19  23 53 43.729   +29 45 39.50  .08378 1.0661 147.0 20.8 170'  92
2018 10 23 20  23 53 48.277   +29 45 12.76  .08383 1.0661 147.0 20.8 170'  92
2018 10 23 21  23 53 52.826   +29 44 45.99  .08389 1.0661 147.0 20.8 171'  92
2018 10 23 22  23 53 57.378   +29 44 19.19  .08395 1.0662 147.0 20.8 171'  92
2018 10 23 23  23 54 01.932   +29 43 52.36  .08400 1.0662 147.0 20.8 171'  92
2018 10 24 00  23 54 06.487   +29 43 25.50  .08406 1.0662 147.0 20.8 172'  92
2018 10 24 01  23 54 11.044   +29 42 58.61  .08412 1.0663 147.0 20.8 172'  92
2018 10 24 02  23 54 15.603   +29 42 31.69  .08417 1.0663 147.0 20.8 173'  92
2018 10 24 03  23 54 20.164   +29 42 04.74  .08423 1.0664 147.0 20.8 173'  92
2018 10 24 04  23 54 24.726   +29 41 37.76  .08429 1.0664 147.0 20.8 173'  92
2018 10 24 05  23 54 29.291   +29 41 10.75  .08435 1.0664 147.0 20.8 174'  92
2018 10 24 06  23 54 33.857   +29 40 43.71  .08440 1.0665 147.0 20.8 174'  92
2018 10 24 07  23 54 38.425   +29 40 16.64  .08446 1.0665 147.0 20.8 175'  92
2018 10 24 08  23 54 42.995   +29 39 49.54  .08452 1.0665 147.0 20.8 175'  92
2018 10 24 09  23 54 47.567   +29 39 22.42  .08458 1.0666 147.0 20.8 175'  92
2018 10 24 10  23 54 52.141   +29 38 55.26  .08463 1.0666 147.0 20.8 176'  93
2018 10 24 11  23 54 56.716   +29 38 28.07  .08469 1.0666 147.0 20.8 176'  93
2018 10 24 12  23 55 01.293   +29 38 00.86  .08475 1.0667 147.0 20.8 177'  93
2018 10 24 13  23 55 05.872   +29 37 33.62  .08481 1.0667 147.0 20.8 177'  93
2018 10 24 14  23 55 10.453   +29 37 06.35  .08486 1.0667 147.0 20.8 177'  93
2018 10 24 15  23 55 15.036   +29 36 39.05  .08492 1.0668 147.0 20.8 178'  93
2018 10 24 16  23 55 19.620   +29 36 11.72  .08498 1.0668 147.0 20.8 178'  93